(°C)
(°C)
-1°
-1°
-2°
-2°
-1°
NNE
NE
NE
NE
NE
NE
NE
(km/h)
6-11
5-11
6-11
6-11
6-11
6-11
5-13
(mm)
0
0
0
0
0
0
0
(%)
0
0
0
0
0
0
0

Élévation du soleil

/ -32.2°
sun-icon
UV 3
06:19
18:46
Gibbeuse croissante (172°)
19:02
05:01

METAR pour 53.5°N 50.15°E (UWWW)

Heure Conditions Température/
Point de rosée
Vent Visibilité Météo Nuages Pression Changement Brut
VFR 4°C / -2°C variable 2kt >10km - Clouds and Visibility OK 1025 No Significant change UWWW 192130Z VRB01MPS CAVOK 04/M02 Q1025 R15/CLRD60 NOSIG RMK QFE757/1009
VFR 4°C / -2°C variable 2kt >10km - Clouds and Visibility OK 1025 No Significant change UWWW 192100Z VRB01MPS CAVOK 04/M02 Q1025 R33/CLRD60 NOSIG RMK QFE758/1011
VFR 4°C / -2°C 20º 4kt >10km - Clouds and Visibility OK 1025 No Significant change UWWW 192030Z 02002MPS CAVOK 04/M02 Q1025 R33/CLRD60 NOSIG RMK QFE758/1010
VFR 4°C / -2°C 30º 4kt >10km - Clouds and Visibility OK 1025 No Significant change UWWW 192000Z 03002MPS CAVOK 04/M02 Q1025 R33/CLRD60 NOSIG RMK QFE758/1010
VFR 5°C / -2°C 360º variable 340º to 080º 4kt >10km - Clouds and Visibility OK 1025 No Significant change UWWW 191930Z 36002MPS 340V080 CAVOK 05/M02 Q1025 R33/CLRD60 NOSIG RMK QFE758/1010
VFR 6°C / -2°C 330º 4kt >10km - Clouds and Visibility OK 1024 No Significant change UWWW 191900Z 33002MPS CAVOK 06/M02 Q1024 R33/CLRD60 NOSIG RMK QFE757/1010
VFR 7°C / -2°C 330º 6kt >10km - Clouds and Visibility OK 1024 No Significant change UWWW 191830Z 33003MPS CAVOK 07/M02 Q1024 R33/CLRD60 NOSIG RMK QFE757/1010
VFR 7°C / -2°C 320º 6kt >10km - Clouds and Visibility OK 1024 No Significant change UWWW 191800Z 32003MPS CAVOK 07/M02 Q1024 R33/CLRD60 NOSIG RMK QFE757/1010
VFR 7°C / -1°C 320º 6kt >10km - Clouds and Visibility OK 1024 No Significant change UWWW 191730Z 32003MPS CAVOK 07/M01 Q1024 R33/CLRD60 NOSIG RMK QFE757/1010
VFR 7°C / -1°C 300º 6kt >10km - Clouds and Visibility OK 1024 No Significant change UWWW 191700Z 30003MPS CAVOK 07/M01 Q1024 R33/CLRD60 NOSIG RMK QFE757/1010
VFR 7°C / -1°C 290º 6kt >10km - Clouds and Visibility OK 1024 No Significant change UWWW 191630Z 29003MPS CAVOK 07/M01 Q1024 R33/CLRD60 NOSIG RMK QFE757/1010
VFR 8°C / -1°C 290º 6kt >10km - Clouds and Visibility OK 1024 No Significant change UWWW 191600Z 29003MPS CAVOK 08/M01 Q1024 R33/CLRD60 NOSIG RMK QFE757/1010
VFR 8°C / -1°C 290º 4kt >10km - Clouds and Visibility OK 1024 No Significant change UWWW 191530Z 29002MPS CAVOK 08/M01 Q1024 R33/CLRD60 NOSIG RMK QFE757/1010
VFR 9°C / -1°C 300º 6kt >10km - Clouds and Visibility OK 1024 No Significant change UWWW 191500Z 30003MPS CAVOK 09/M01 Q1024 R33/CLRD60 NOSIG RMK QFE757/1009
VFR 9°C / -1°C 310º 6kt >10km - Clouds and Visibility OK 1024 No Significant change UWWW 191430Z 31003MPS CAVOK 09/M01 Q1024 R33/CLRD60 NOSIG RMK QFE757/1010
VFR 10°C / -2°C 320º 6kt >10km - Clouds and Visibility OK 1024 No Significant change UWWW 191400Z 32003MPS CAVOK 10/M02 Q1024 R33/CLRD60 NOSIG RMK QFE757/1010
VFR 11°C / -2°C 340º 8kt >10km - Clouds and Visibility OK 1024 No Significant change UWWW 191330Z 34004MPS CAVOK 11/M02 Q1024 R33/CLRD60 NOSIG RMK QFE757/1010
VFR 11°C / -2°C 350º variable 310º to 030º 6kt >10km - Clouds and Visibility OK 1024 No Significant change UWWW 191300Z 35003MPS 310V030 CAVOK 11/M02 Q1024 R33/CLRD60 NOSIG RMK QFE757/1010
VFR 11°C / -2°C 330º variable 280º to 350º 8kt >10km - Clouds and Visibility OK 1024 No Significant change UWWW 191230Z 33004MPS 280V350 CAVOK 11/M02 Q1024 R33/CLRD60 NOSIG RMK QFE757/1010
VFR 11°C / -2°C 310º variable 270º to 340º 8kt >10km - Clouds and Visibility OK 1024 No Significant change UWWW 191200Z 31004MPS 270V340 CAVOK 11/M02 Q1024 R33/CLRD60 NOSIG RMK QFE757/1010
VFR 11°C / -2°C 320º variable 270º to 010º 6kt >10km - Clouds and Visibility OK 1024 No Significant change UWWW 191130Z 32003MPS 270V010 CAVOK 11/M02 Q1024 R33/CLRD60 NOSIG RMK QFE757/1010
VFR 12°C / -2°C 340º variable 290º to 030º 8kt >10km - Clouds and Visibility OK 1024 No Significant change UWWW 191100Z 34004MPS 290V030 CAVOK 12/M02 Q1024 R33/CLRD60 NOSIG RMK QFE757/1010
VFR 12°C / -2°C 310º variable 240º to 030º 6kt >10km - Clouds and Visibility OK 1024 No Significant change UWWW 191030Z 31003MPS 240V030 CAVOK 12/M02 Q1024 R33/CLRD60 NOSIG RMK QFE757/1010
VFR 11°C / -3°C 310º variable 260º to 350º 6kt >10km - Clouds and Visibility OK 1024 No Significant change UWWW 191000Z 31003MPS 260V350 CAVOK 11/M03 Q1024 R33/CLRD60 NOSIG RMK QFE757/1010

VFR

4°C / -2°C

[Plus]
Vent variable 2kt
Visibilité >10km
Météo -
Nuages Clouds and Visibility OK
Pression 1025
Changement No Significant change
Brut UWWW 192130Z VRB01MPS CAVOK 04/M02 Q1025 R15/CLRD60 NOSIG RMK QFE757/1009

VFR

4°C / -2°C

[Plus]
Vent variable 2kt
Visibilité >10km
Météo -
Nuages Clouds and Visibility OK
Pression 1025
Changement No Significant change
Brut UWWW 192100Z VRB01MPS CAVOK 04/M02 Q1025 R33/CLRD60 NOSIG RMK QFE758/1011

VFR

4°C / -2°C

[Plus]
Vent 20º 4kt
Visibilité >10km
Météo -
Nuages Clouds and Visibility OK
Pression 1025
Changement No Significant change
Brut UWWW 192030Z 02002MPS CAVOK 04/M02 Q1025 R33/CLRD60 NOSIG RMK QFE758/1010

VFR

4°C / -2°C

[Plus]
Vent 30º 4kt
Visibilité >10km
Météo -
Nuages Clouds and Visibility OK
Pression 1025
Changement No Significant change
Brut UWWW 192000Z 03002MPS CAVOK 04/M02 Q1025 R33/CLRD60 NOSIG RMK QFE758/1010

VFR

5°C / -2°C

[Plus]
Vent 360º variable 340º to 080º 4kt
Visibilité >10km
Météo -
Nuages Clouds and Visibility OK
Pression 1025
Changement No Significant change
Brut UWWW 191930Z 36002MPS 340V080 CAVOK 05/M02 Q1025 R33/CLRD60 NOSIG RMK QFE758/1010

VFR

6°C / -2°C

[Plus]
Vent 330º 4kt
Visibilité >10km
Météo -
Nuages Clouds and Visibility OK
Pression 1024
Changement No Significant change
Brut UWWW 191900Z 33002MPS CAVOK 06/M02 Q1024 R33/CLRD60 NOSIG RMK QFE757/1010

VFR

7°C / -2°C

[Plus]
Vent 330º 6kt
Visibilité >10km
Météo -
Nuages Clouds and Visibility OK
Pression 1024
Changement No Significant change
Brut UWWW 191830Z 33003MPS CAVOK 07/M02 Q1024 R33/CLRD60 NOSIG RMK QFE757/1010

VFR

7°C / -2°C

[Plus]
Vent 320º 6kt
Visibilité >10km
Météo -
Nuages Clouds and Visibility OK
Pression 1024
Changement No Significant change
Brut UWWW 191800Z 32003MPS CAVOK 07/M02 Q1024 R33/CLRD60 NOSIG RMK QFE757/1010

VFR

7°C / -1°C

[Plus]
Vent 320º 6kt
Visibilité >10km
Météo -
Nuages Clouds and Visibility OK
Pression 1024
Changement No Significant change
Brut UWWW 191730Z 32003MPS CAVOK 07/M01 Q1024 R33/CLRD60 NOSIG RMK QFE757/1010

VFR

7°C / -1°C

[Plus]
Vent 300º 6kt
Visibilité >10km
Météo -
Nuages Clouds and Visibility OK
Pression 1024
Changement No Significant change
Brut UWWW 191700Z 30003MPS CAVOK 07/M01 Q1024 R33/CLRD60 NOSIG RMK QFE757/1010

VFR

7°C / -1°C

[Plus]
Vent 290º 6kt
Visibilité >10km
Météo -
Nuages Clouds and Visibility OK
Pression 1024
Changement No Significant change
Brut UWWW 191630Z 29003MPS CAVOK 07/M01 Q1024 R33/CLRD60 NOSIG RMK QFE757/1010

VFR

8°C / -1°C

[Plus]
Vent 290º 6kt
Visibilité >10km
Météo -
Nuages Clouds and Visibility OK
Pression 1024
Changement No Significant change
Brut UWWW 191600Z 29003MPS CAVOK 08/M01 Q1024 R33/CLRD60 NOSIG RMK QFE757/1010

VFR

8°C / -1°C

[Plus]
Vent 290º 4kt
Visibilité >10km
Météo -
Nuages Clouds and Visibility OK
Pression 1024
Changement No Significant change
Brut UWWW 191530Z 29002MPS CAVOK 08/M01 Q1024 R33/CLRD60 NOSIG RMK QFE757/1010

VFR

9°C / -1°C

[Plus]
Vent 300º 6kt
Visibilité >10km
Météo -
Nuages Clouds and Visibility OK
Pression 1024
Changement No Significant change
Brut UWWW 191500Z 30003MPS CAVOK 09/M01 Q1024 R33/CLRD60 NOSIG RMK QFE757/1009

VFR

9°C / -1°C

[Plus]
Vent 310º 6kt
Visibilité >10km
Météo -
Nuages Clouds and Visibility OK
Pression 1024
Changement No Significant change
Brut UWWW 191430Z 31003MPS CAVOK 09/M01 Q1024 R33/CLRD60 NOSIG RMK QFE757/1010

VFR

10°C / -2°C

[Plus]
Vent 320º 6kt
Visibilité >10km
Météo -
Nuages Clouds and Visibility OK
Pression 1024
Changement No Significant change
Brut UWWW 191400Z 32003MPS CAVOK 10/M02 Q1024 R33/CLRD60 NOSIG RMK QFE757/1010

VFR

11°C / -2°C

[Plus]
Vent 340º 8kt
Visibilité >10km
Météo -
Nuages Clouds and Visibility OK
Pression 1024
Changement No Significant change
Brut UWWW 191330Z 34004MPS CAVOK 11/M02 Q1024 R33/CLRD60 NOSIG RMK QFE757/1010

VFR

11°C / -2°C

[Plus]
Vent 350º variable 310º to 030º 6kt
Visibilité >10km
Météo -
Nuages Clouds and Visibility OK
Pression 1024
Changement No Significant change
Brut UWWW 191300Z 35003MPS 310V030 CAVOK 11/M02 Q1024 R33/CLRD60 NOSIG RMK QFE757/1010

VFR

11°C / -2°C

[Plus]
Vent 330º variable 280º to 350º 8kt
Visibilité >10km
Météo -
Nuages Clouds and Visibility OK
Pression 1024
Changement No Significant change
Brut UWWW 191230Z 33004MPS 280V350 CAVOK 11/M02 Q1024 R33/CLRD60 NOSIG RMK QFE757/1010

VFR

11°C / -2°C

[Plus]
Vent 310º variable 270º to 340º 8kt
Visibilité >10km
Météo -
Nuages Clouds and Visibility OK
Pression 1024
Changement No Significant change
Brut UWWW 191200Z 31004MPS 270V340 CAVOK 11/M02 Q1024 R33/CLRD60 NOSIG RMK QFE757/1010

VFR

11°C / -2°C

[Plus]
Vent 320º variable 270º to 010º 6kt
Visibilité >10km
Météo -
Nuages Clouds and Visibility OK
Pression 1024
Changement No Significant change
Brut UWWW 191130Z 32003MPS 270V010 CAVOK 11/M02 Q1024 R33/CLRD60 NOSIG RMK QFE757/1010

VFR

12°C / -2°C

[Plus]
Vent 340º variable 290º to 030º 8kt
Visibilité >10km
Météo -
Nuages Clouds and Visibility OK
Pression 1024
Changement No Significant change
Brut UWWW 191100Z 34004MPS 290V030 CAVOK 12/M02 Q1024 R33/CLRD60 NOSIG RMK QFE757/1010

VFR

12°C / -2°C

[Plus]
Vent 310º variable 240º to 030º 6kt
Visibilité >10km
Météo -
Nuages Clouds and Visibility OK
Pression 1024
Changement No Significant change
Brut UWWW 191030Z 31003MPS 240V030 CAVOK 12/M02 Q1024 R33/CLRD60 NOSIG RMK QFE757/1010

VFR

11°C / -3°C

[Plus]
Vent 310º variable 260º to 350º 6kt
Visibilité >10km
Météo -
Nuages Clouds and Visibility OK
Pression 1024
Changement No Significant change
Brut UWWW 191000Z 31003MPS 260V350 CAVOK 11/M03 Q1024 R33/CLRD60 NOSIG RMK QFE757/1010

TAF pour 53.5°N 50.15°E (UWWW)

From till


Maximum Temperature 12ºC on . Minimum Temperature 2ºC on .
From till Wind variable 2kt. Visibility 10km or more. Broken Clouds 1600ft.
Temporarly from till Visibility 2000m. Mist . Broken Clouds 700ft.
Becoming from till Wind 100º 12kt. Gust 25kt. Visibility 10km or more. Broken Clouds 1600ft.

Brut: TAF UWWW 191952Z 1921/2021 VRB01MPS 9999 BKN016 TX12/2011Z TN02/2002Z TEMPO 1921/2004 2000 BR BKN007 BECMG 2004/2005 10006G13MPS

Les images satellites et les pluies actuelles pour 53.5°N 50.15°E

Le marqueur est placé sur 53.5°N 50.15°E. [Plus]

L'image satellite en temps réel combine la lumière visible pendant la journée et le rayonnement infrarouge pendant la nuit. La nuit, l'image n'est pas sombre car le rayonnement infrarouge permet de détecter les différences de température. Malheureusement, les nuages bas et le brouillard sont difficiles à distinguer des températures au sol et peuvent donc être presque invisibles pendant la nuit. Les images des satellites Météosat pour l'Europe sont mises à jour en temps réel toutes les 5 minutes. Les images GOES-16/GOES-17 (Amérique du Nord et du Sud) et Himawari (Asie) sont mises à jour toutes les 10 minutes.

Copyright 2021 EUMETSAT / meteoblue. / Copyright 2021 meteoblue

Radar et prévision de précipitation à court terme pour 53.5°N 50.15°E

Bruine
Légère
Modéré
Fort
Très fort
Grêle

Le marqueur est placé sur 53.5°N 50.15°E. Cette animation montre le Radar des précipitations pour les dernières heures, ainsi qu'une 1h prévision. La bruine ou les légères chutes de neiges peuvent ne pas être détectées par le radar. L'intensité des précipitations est visible avec un code couleur allant du bleu clair au orange.